Погода в Александровке

Россия / Оренбургская область     52°40′44″N   54°25′03″E
темп.,
°C
ветер,
м/с
пор.,
м/с
влажн.,
%
обл.,
%
осадки,
мм/ч
давл.,
гПа
погр.,
м
4 июля, пн
пн423:00+15ссв467982 0.4 100575
02:00+13с48855 0.0 1004106
05:00+12ссз488795 0.0 1004109
08:00+16с61178100 0.1 1004415
11:00+18ссв81067100 0.1 1004736
14:00+16с8107898 0.1 1005658
17:00+16с698199 1.4 1004420
20:00+17ссв7981100 0.4 1005712
5 июля, вт
вт523:00+13св71293100 0.9 1007382
02:00+12всв5994100 2.0 1008452
05:00+12всв5989100 2.1 1009350
08:00+12св5886100 0.0 1011472
11:00+13св796628 0.0 1012730
14:00+17ссв8846100 0.0 10122111
17:00+15ссв81059100 0.1 10121556
20:00+14ссв7106624 0.1 10131133
6 июля, ср
ср623:00+11с488234 0.1 1014120
02:00+11с3881100 0.0 1014164
05:00+10с468719 0.1 101588
08:00+15с587015 0.0 1015346
11:00+19с564921 0.0 10151385
14:00+21с575175 0.0 10151619
17:00+21ссз355487 0.1 10151295
20:00+18с487891 1.9 1015205
7 июля, чт
чт723:00+15сз33857 1.9 101630
02:00+14сз348843 0.0 101549
05:00+14сз369049 0.0 1016104
08:00+16сз478396 0.0 1017246
11:00+19с367440 0.1 1017585
14:00+22с67625 2.2 10171224
17:00+22св566634 4.3 10171078
20:00+21в34720 0.5 1018413
8 июля, пт
пт823:00+16вюв22820 0.5 101912
02:00+14ю22840 0.0 101911
05:00+13ююз11840 0.0 102010
08:00+17ю12700 0.0 1021168
11:00+21ююз11542 0.0 1020832
14:00+24юз01440 0.0 10201524
17:00+25зсз11410 0.0 10191792
20:00+24ссз12590 0.0 101863